FW6402 Weather Reports


Display with metric or nautical units.
time (UTC)temp
F
wind
direction
speed
MPH
gust
MPH
rain 1hr
in
rain 24hr
in
rain mn
in
humidity
%
barometer
mb
20260902025950 65 243 1.0 4.0 0.00 0.00 0.00 72 1013.5
20260902025435 65 210 1.0 3.0 0.00 0.00 0.00 72 1013.5
20260902024932 65 236 1.0 5.0 0.00 0.00 0.00 71 1013.5
20260902024428 65 264 2.0 5.0 0.00 0.00 0.00 71 1013.5
20260902023920 66 275 2.0 5.0 0.00 0.00 0.00 71 1013.4
20260902023422 66 231 1.0 5.0 0.00 0.00 0.00 70 1013.3
20260902022919 66 221 1.0 3.0 0.00 0.00 0.00 70 1013.3
20260902022446 66 241 1.0 3.0 0.00 0.00 0.00 70 1013.3
20260902021944 66 245 2.0 4.0 0.00 0.00 0.00 69 1013.3
20260902021437 66 249 2.0 4.0 0.00 0.00 0.00 69 1013.1
20260902020956 66 238 2.0 4.0 0.00 0.00 0.00 69 1013.1
20260902020432 67 88 2.0 4.0 0.00 0.00 0.00 69 1013.1
20260902015958 67 252 2.0 4.0 0.00 0.00 0.00 68 1013.2
20260902015435 67 265 2.0 5.0 0.00 0.00 0.00 68 1013.1
20260902014932 67 240 2.0 5.0 0.00 0.00 0.00 68 1013.1
20260902014500 67 238 1.0 4.0 0.00 0.00 0.00 67 1013.0
20260902013936 67 227 1.0 4.0 0.00 0.00 0.00 67 1013.0
20260902013433 67 244 1.0 3.0 0.00 0.00 0.00 66 1013.1
20260902012930 67 266 1.0 4.0 0.00 0.00 0.00 66 1013.1
20260902012423 67 245 2.0 4.0 0.00 0.00 0.00 66 1013.0
20260902011942 67 237 2.0 4.0 0.00 0.00 0.00 65 1013.0
20260902011440 67 252 1.0 4.0 0.00 0.00 0.00 65 1013.0
20260902011004 68 269 2.0 5.0 0.00 0.00 0.00 64 1012.9
20260902010440 68 202 2.0 5.0 0.00 0.00 0.00 64 1013.0
20260902005918 68 254 2.0 5.0 0.00 0.00 0.00 63 1012.9
20260902005446 68 229 2.0 5.0 0.00 0.00 0.00 64 1012.8
20260902004942 68 247 2.0 6.0 0.00 0.00 0.00 64 1012.8
20260902004419 69 271 3.0 5.0 0.00 0.00 0.00 63 1012.7
20260902003933 69 155 2.0 6.0 0.00 0.00 0.00 63 1012.7
20260902003432 69 175 2.0 6.0 0.00 0.00 0.00 63 1012.7
20260902002939 69 233 2.0 5.0 0.00 0.00 0.00 62 1012.6
20260902002437 70 221 2.0 5.0 0.00 0.00 0.00 62 1012.6
20260902001955 70 264 2.0 5.0 0.00 0.00 0.00 62 1012.6
20260902001431 70 223 1.0 4.0 0.00 0.00 0.00 63 1012.6
20260902000933 70 225 2.0 5.0 0.00 0.00 0.00 63 1012.5
20260902000430 70 266 2.0 5.0 0.00 0.00 0.00 63 1012.5
20260901235948 70 57 1.0 3.0 0.00 0.00 0.00 63 1012.5
20260901235424 70 238 1.0 3.0 0.00 0.00 0.00 63 1012.6
20260901234943 70 277 0.0 5.0 0.00 0.00 0.00 63 1012.6
20260901234440 70 283 1.0 7.0 0.00 0.00 0.00 63 1012.6
20260901233939 70 242 2.0 7.0 0.00 0.00 0.00 63 1012.6
20260901233418 70 229 1.0 4.0 0.00 0.00 0.00 63 1012.6
20260901232936 70 255 2.0 4.0 0.00 0.00 0.00 63 1012.8
20260901232434 70 225 1.0 4.0 0.00 0.00 0.00 62 1012.8
20260901231932 70 233 2.0 4.0 0.00 0.00 0.00 62 1012.9
20260901231439 70 227 2.0 4.0 0.00 0.00 0.00 63 1012.9
20260901230935 70 242 1.0 5.0 0.00 0.00 0.00 63 1012.9
20260901230432 70 224 2.0 6.0 0.00 0.00 0.00 63 1012.9
20260901225929 70 229 2.0 4.0 0.00 0.00 0.00 62 1013.0
20260901225423 70 242 1.0 6.0 0.00 0.00 0.00 62 1012.9
20260901224943 70 274 2.0 6.0 0.00 0.00 0.00 61 1013.0
20260901224458 71 219 1.0 4.0 0.00 0.00 0.00 61 1013.1
20260901223954 71 212 1.0 4.0 0.00 0.00 0.00 61 1013.1
20260901223441 71 218 1.0 5.0 0.00 0.00 0.00 60 1013.0
20260901222938 71 234 1.0 5.0 0.00 0.00 0.00 61 1013.1
20260901222417 71 258 2.0 7.0 0.00 0.00 0.00 61 1013.1
20260901221935 70 197 2.0 6.0 0.00 0.00 0.00 62 1013.2
20260901221433 70 223 2.0 5.0 0.00 0.00 0.00 62 1013.2
20260901220932 70 240 2.0 7.0 0.00 0.00 0.00 62 1013.2
20260901220427 70 250 2.0 7.0 0.00 0.00 0.00 63 1013.0
20260901215932 70 276 2.0 6.0 0.00 0.00 0.00 62 1013.1
20260901215429 70 220 2.0 6.0 0.00 0.00 0.00 62 1013.1
20260901214945 70 267 2.0 6.0 0.00 0.00 0.00 63 1013.1
20260901214444 70 204 3.0 6.0 0.00 0.00 0.00 61 1013.1
20260901213942 71 215 2.0 4.0 0.00 0.00 0.00 62 1013.0
20260901213418 71 284 2.0 8.0 0.00 0.00 0.00 62 1013.1
20260901212943 71 250 2.0 8.0 0.00 0.00 0.00 62 1013.0
20260901212437 71 279 2.0 8.0 0.00 0.00 0.00 61 1013.1
20260901211928 71 227 4.0 8.0 0.00 0.00 0.00 60 1013.0
20260901211425 70 287 4.0 7.0 0.00 0.00 0.00 61 1013.1
20260901210923 70 316 1.0 5.0 0.00 0.00 0.00 63 1013.1
20260901210424 69 223 2.0 5.0 0.00 0.00 0.00 64 1013.2
20260901205941 69 249 2.0 7.0 0.00 0.00 0.00 64 1013.2
20260901205418 69 259 3.0 7.0 0.00 0.00 0.00 63 1013.2
20260901204945 69 180 2.0 4.0 0.00 0.00 0.00 65 1013.3
20260901204442 69 246 1.0 4.0 0.00 0.00 0.00 66 1013.3
20260901203919 68 240 2.0 6.0 0.00 0.00 0.00 67 1013.4
20260901203436 68 229 2.0 6.0 0.00 0.00 0.00 67 1013.5
20260901202935 68 289 3.0 4.0 0.00 0.00 0.00 67 1013.5
20260901202428 68 233 2.0 4.0 0.00 0.00 0.00 68 1013.5
20260901201954 67 191 1.0 3.0 0.00 0.00 0.00 69 1013.5
20260901201429 67 249 1.0 3.0 0.00 0.00 0.00 69 1013.6
20260901200927 67 211 1.0 3.0 0.00 0.00 0.00 70 1013.5
20260901200446 66 115 1.0 3.0 0.00 0.00 0.00 72 1013.5
20260901195942 66 192 1.0 4.0 0.00 0.00 0.00 72 1013.5
20260901195421 66 218 2.0 4.0 0.00 0.00 0.00 71 1013.6
20260901194917 66 282 1.0 3.0 0.00 0.00 0.00 72 1013.6
20260901194434 67 221 1.0 3.0 0.00 0.00 0.00 72 1013.7
20260901193932 67 254 0.0 3.0 0.00 0.00 0.00 72 1013.7
20260901193428 67 279 1.0 3.0 0.00 0.00 0.00 72 1013.8
20260901192921 67 329 0.0 2.0 0.00 0.00 0.00 71 1013.8
20260901192418 67 193 0.0 3.0 0.00 0.00 0.00 72 1013.8
20260901191934 66 248 0.0 5.0 0.00 0.00 0.00 73 1013.9
20260901191440 66 250 1.0 5.0 0.00 0.00 0.00 73 1014.0
20260901190937 66 221 1.0 2.0 0.00 0.00 0.00 74 1014.1
20260901190435 66 257 0.0 2.0 0.00 0.00 0.00 74 1014.1
20260901185932 65 204 1.0 3.0 0.00 0.00 0.00 75 1014.2
20260901185440 65 224 1.0 3.0 0.00 0.00 0.00 75 1014.2
20260901184937 65 267 0.0 3.0 0.00 0.00 0.00 75 1014.2
20260901184433 65 270 1.0 4.0 0.00 0.00 0.00 75 1014.3
20260901183927 65 280 2.0 4.0 0.00 0.00 0.00 73 1014.2
20260901183425 66 234 1.0 3.0 0.00 0.00 0.00 74 1014.3
20260901182925 66 267 0.0 2.0 0.00 0.00 0.00 74 1014.3
20260901182422 65 221 0.0 2.0 0.00 0.00 0.00 74 1014.3
20260901181934 65 231 0.0 3.0 0.00 0.00 0.00 77 1014.3
20260901181441 64 232 1.0 3.0 0.00 0.00 0.00 78 1014.3
20260901180941 64 247 0.0 2.0 0.00 0.00 0.00 79 1014.3
20260901180437 63 232 1.0 2.0 0.00 0.00 0.00 81 1014.4
20260901175932 63 222 1.0 2.0 0.00 0.00 0.00 81 1014.5
20260901175428 63 89 0.0 3.0 0.00 0.00 0.00 81 1014.5
20260901174918 63 216 0.0 2.0 0.00 0.00 0.00 81 1014.5
20260901174441 63 226 0.0 2.0 0.00 0.00 0.00 81 1014.5
20260901173939 63 273 0.0 3.0 0.00 0.00 0.00 81 1014.5
20260901173435 62 255 1.0 3.0 0.00 0.00 0.00 81 1014.5
20260901172932 63 284 1.0 2.0 0.00 0.00 0.00 81 1014.4
20260901172417 62 269 0.0 2.0 0.00 0.00 0.00 83 1014.4
20260901171934 62 269 0.0 4.0 0.00 0.00 0.00 83 1014.3
20260901171432 62 285 1.0 4.0 0.00 0.00 0.00 83 1014.3
20260901170959 61 75 0.0 4.0 0.00 0.00 0.00 84 1014.3
20260901170452 61 233 0.0 4.0 0.00 0.00 0.00 85 1014.3
20260901165927 61 286 1.0 4.0 0.00 0.00 0.00 86 1014.3
20260901165429 60 223 1.0 4.0 0.00 0.00 0.00 86 1014.3
20260901164946 60 237 1.0 4.0 0.00 0.00 0.00 86 1014.3
20260901164417 60 196 0.0 4.0 0.00 0.00 0.00 86 1014.4
20260901163943 60 34 1.0 3.0 0.00 0.00 0.00 86 1014.4
20260901163421 60 219 1.0 3.0 0.00 0.00 0.00 86 1014.4
20260901162917 60 224 1.0 3.0 0.00 0.00 0.00 85 1014.3
20260901162435 61 259 1.0 3.0 0.00 0.00 0.00 84 1014.3
20260901161941 61 269 1.0 2.0 0.00 0.00 0.00 84 1014.4
20260901161435 61 260 0.0 3.0 0.00 0.00 0.00 83 1014.3
20260901160933 61 230 1.0 3.0 0.00 0.00 0.00 82 1014.3
20260901160431 61 262 1.0 2.0 0.00 0.00 0.00 82 1014.3
20260901155950 61 215 1.0 3.0 0.00 0.00 0.00 82 1014.3
20260901155426 61 243 0.0 4.0 0.00 0.00 0.00 82 1014.2
20260901154917 61 229 0.0 3.0 0.00 0.00 0.00 82 1014.2
20260901154445 61 236 1.0 2.0 0.00 0.00 0.00 83 1014.3
20260901153941 61 263 0.0 2.0 0.00 0.00 0.00 83 1014.2
20260901153420 61 266 0.0 2.0 0.00 0.00 0.00 83 1014.2
20260901152918 61 205 1.0 2.0 0.00 0.00 0.00 83 1014.2
20260901152433 61 243 1.0 3.0 0.00 0.00 0.00 83 1014.2
20260901151924 61 256 1.0 3.0 0.00 0.00 0.00 82 1014.1
20260901151444 61 227 1.0 2.0 0.00 0.00 0.00 82 1014.0
20260901150922 61 239 1.0 2.0 0.00 0.00 0.00 82 1014.0
20260901150418 61 227 1.0 4.0 0.00 0.00 0.00 82 1014.0
20260901145934 60 231 0.0 4.0 0.00 0.00 0.00 82 1013.9
20260901145433 60 214 0.0 3.0 0.00 0.00 0.00 82 1013.9
20260901145000 60 255 1.0 2.0 0.00 0.00 0.00 82 1013.8
20260901144436 60 235 0.0 1.0 0.00 0.00 0.00 82 1013.8
20260901143931 60 232 0.0 3.0 0.00 0.00 0.00 82 1013.8
20260901143439 60 245 0.0 3.0 0.00 0.00 0.00 82 1013.8
20260901142932 60 232 0.0 1.0 0.00 0.00 0.00 83 1013.8
20260901142445 60 231 0.0 1.0 0.00 0.00 0.00 83 1013.7
20260901141921 60 233 0.0 1.0 0.00 0.00 0.00 83 1013.7
20260901141443 60 233 0.0 1.0 0.00 0.00 0.00 83 1013.6
20260901140921 60 238 0.0 1.0 0.00 0.00 0.00 83 1013.7
20260901140418 60 217 0.0 2.0 0.00 0.00 0.00 83 1013.7
20260901135933 60 217 0.0 2.0 0.00 0.00 0.00 83 1013.7
20260901135452 60 222 0.0 0.0 0.00 0.00 0.00 83 1013.5
20260901134928 60 222 0.0 0.0 0.00 0.00 0.00 83 1013.5
20260901134446 60 222 0.0 1.0 0.00 0.00 0.00 83 1013.5
20260901133945 60 223 0.0 1.0 0.00 0.00 0.00 83 1013.5
20260901133442 60 257 0.0 1.0 0.00 0.00 0.00 83 1013.5
20260901132921 60 257 0.0 1.0 0.00 0.00 0.00 84 1013.5
20260901132420 60 257 0.0 0.0 0.00 0.00 0.00 83 1013.5
20260901131918 60 257 0.0 1.0 0.00 0.00 0.00 83 1013.4
20260901131434 60 257 0.0 1.0 0.00 0.00 0.00 84 1013.4
20260901130931 60 233 0.0 1.0 0.00 0.00 0.00 84 1013.5
20260901130439 60 233 0.0 1.0 0.00 0.00 0.00 84 1013.4
20260901125937 59 233 0.0 1.0 0.00 0.00 0.00 84 1013.4
20260901125433 59 255 0.0 1.0 0.00 0.00 0.00 84 1013.4
20260901124926 59 243 0.0 1.0 0.00 0.00 0.00 84 1013.4
20260901124424 59 236 0.0 1.0 0.00 0.00 0.00 84 1013.3
20260901123923 59 236 0.0 1.0 0.00 0.00 0.00 84 1013.3
20260901123419 59 170 0.0 1.0 0.00 0.00 0.00 84 1013.4
20260901122917 59 222 0.0 1.0 0.00 0.00 0.00 84 1013.3
20260901122445 59 219 0.0 1.0 0.00 0.00 0.00 84 1013.4
20260901121923 59 253 0.0 1.0 0.00 0.00 0.00 84 1013.4
20260901121420 59 256 0.0 2.0 0.00 0.00 0.00 84 1013.4
20260901120917 59 243 0.0 2.0 0.00 0.00 0.00 85 1013.4
20260901120421 59 236 0.0 0.0 0.00 0.00 0.00 85 1013.4
20260901115919 59 236 0.0 1.0 0.00 0.00 0.00 85 1013.4
20260901115417 59 236 0.0 1.0 0.00 0.00 0.00 85 1013.4
20260901114935 59 236 0.0 1.0 0.00 0.00 0.00 85 1013.4
20260901114433 59 238 0.0 1.0 0.00 0.00 0.00 85 1013.4
20260901113941 58 222 0.0 1.0 0.00 0.00 0.00 85 1013.4
20260901113457 58 223 0.0 1.0 0.00 0.00 0.00 85 1013.4
20260901112932 58 220 1.0 1.0 0.00 0.00 0.00 86 1013.3
20260901112458 58 230 0.0 1.0 0.00 0.00 0.00 86 1013.3
20260901111934 58 229 0.0 1.0 0.00 0.00 0.00 86 1013.3
20260901111448 58 240 0.0 1.0 0.00 0.00 0.00 86 1013.2
20260901110924 58 221 0.0 1.0 0.00 0.00 0.00 86 1013.1
20260901110444 58 219 0.0 1.0 0.00 0.00 0.00 86 1013.2
20260901105943 58 219 0.0 2.0 0.00 0.00 0.00 85 1013.2
20260901105440 58 219 0.0 3.0 0.00 0.00 0.00 85 1013.2
20260901104937 58 155 0.0 3.0 0.00 0.00 0.00 85 1013.1
20260901104435 58 231 0.0 1.0 0.00 0.00 0.00 85 1013.1
20260901103934 58 231 0.0 1.0 0.00 0.00 0.00 85 1013.1
20260901103441 58 231 0.0 2.0 0.00 0.00 0.00 85 1013.1
20260901102954 58 239 0.0 2.0 0.00 0.00 0.00 85 1013.1
20260901102441 58 221 0.0 1.0 0.00 0.00 0.00 84 1013.1
20260901101939 58 225 0.0 1.0 0.00 0.00 0.00 84 1013.0
20260901101437 59 229 0.0 2.0 0.00 0.00 0.00 84 1013.0
20260901100935 59 221 0.0 2.0 0.00 0.00 0.00 84 1013.0
20260901100433 59 256 1.0 1.0 0.00 0.00 0.00 84 1013.1
20260901095931 59 255 0.0 5.0 0.00 0.00 0.00 83 1013.1
20260901095430 59 252 0.0 5.0 0.00 0.00 0.00 83 1013.0
20260901094955 59 236 1.0 2.0 0.00 0.00 0.00 83 1012.9
20260901094427 59 233 0.0 2.0 0.00 0.00 0.00 83 1012.9
20260901093928 59 231 0.0 6.0 0.00 0.00 0.00 83 1012.8
20260901093425 59 263 2.0 6.0 0.00 0.00 0.00 83 1012.7
20260901092922 60 236 0.0 3.0 0.00 0.00 0.00 82 1012.8
20260901092420 60 231 0.0 3.0 0.00 0.00 0.00 82 1012.7
20260901091918 60 224 0.0 1.0 0.00 0.00 0.00 82 1012.6
20260901091436 60 247 0.0 3.0 0.00 0.00 0.00 82 1012.6
20260901090945 60 230 1.0 3.0 0.00 0.00 0.00 82 1012.5
20260901090423 60 256 0.0 2.0 0.00 0.00 0.00 82 1012.4
20260901085921 60 236 0.0 2.0 0.00 0.00 0.00 82 1012.3
20260901085502 60 236 0.0 4.0 0.00 0.00 0.00 81 1012.2
20260901084920 60 221 2.0 4.0 0.00 0.00 0.00 81 1012.2
20260901084434 60 258 2.0 3.0 0.00 0.00 0.00 81 1012.2
20260901083933 60 226 1.0 2.0 0.00 0.00 0.00 82 1012.2
20260901083432 60 236 0.0 2.0 0.00 0.00 0.00 81 1012.3
20260901082929 60 264 0.0 2.0 0.00 0.00 0.00 81 1012.2
20260901082455 61 248 0.0 5.0 0.00 0.00 0.00 81 1012.2
20260901081930 61 240 2.0 5.0 0.00 0.00 0.00 81 1012.3
20260901081429 61 254 0.0 3.0 0.00 0.00 0.00 80 1012.4
20260901080930 61 253 0.0 3.0 0.00 0.00 0.00 80 1012.4
20260901080420 61 231 1.0 3.0 0.00 0.00 0.00 80 1012.2
20260901075942 61 260 0.0 3.0 0.00 0.00 0.00 80 1012.2
20260901075439 61 259 1.0 3.0 0.00 0.00 0.00 80 1012.3
20260901074936 61 274 1.0 7.0 0.00 0.00 0.00 79 1012.3
20260901074434 61 245 0.0 5.0 0.00 0.00 0.00 79 1012.2
20260901073932 61 258 2.0 5.0 0.00 0.00 0.00 79 1012.1
20260901073440 62 259 1.0 2.0 0.00 0.00 0.00 78 1012.1
20260901072937 62 259 0.0 4.0 0.00 0.00 0.00 78 1012.1
20260901072453 62 267 0.0 4.0 0.00 0.00 0.00 77 1012.0
20260901071928 62 246 2.0 4.0 0.00 0.00 0.00 77 1012.0
20260901071428 63 238 2.0 5.0 0.00 0.00 0.00 76 1011.8
20260901070921 63 262 1.0 6.0 0.00 0.00 0.00 75 1011.8
20260901070418 63 199 2.0 4.0 0.00 0.00 0.00 75 1011.7
20260901065934 64 2 1.0 8.0 0.00 0.00 0.00 74 1011.7
20260901065432 64 252 1.0 8.0 0.00 0.00 0.00 73 1011.7
20260901064941 64 276 2.0 5.0 0.00 0.00 0.00 72 1011.6
20260901064437 65 278 1.0 7.0 0.00 0.00 0.00 72 1011.6
20260901063933 65 250 3.0 7.0 0.00 0.00 0.00 71 1011.3
20260901063431 65 247 1.0 3.0 0.00 0.00 0.00 71 1011.3
20260901062936 65 236 1.0 3.0 0.00 0.00 0.00 70 1011.3
20260901062432 66 266 1.0 2.0 0.00 0.00 0.00 70 1011.1
20260901061927 66 243 0.0 4.0 0.00 0.00 0.00 70 1011.1
20260901061424 66 251 1.0 4.0 0.00 0.00 0.00 69 1011.0
20260901060944 66 272 1.0 4.0 0.00 0.00 0.00 69 1011.0
20260901060442 67 257 1.0 3.0 0.00 0.00 0.00 69 1010.9
20260901055919 67 47 1.0 4.0 0.00 0.00 0.00 68 1010.8
20260901055435 67 310 1.0 4.0 0.00 0.00 0.00 68 1010.8
20260901054934 67 221 1.0 3.0 0.00 0.00 0.00 67 1010.8
20260901054432 68 230 1.0 3.0 0.00 0.00 0.00 67 1010.8
20260901053958 68 235 1.0 4.0 0.00 0.00 0.00 67 1010.6
20260901053432 68 283 2.0 4.0 0.00 0.00 0.00 67 1010.6
20260901052931 68 295 2.0 4.0 0.00 0.00 0.00 67 1010.5
20260901052448 68 274 1.0 4.0 0.00 0.00 0.00 66 1010.6
20260901051922 68 237 1.0 4.0 0.00 0.00 0.00 66 1010.5
20260901051503 68 261 1.0 2.0 0.00 0.00 0.00 66 1010.5
20260901050921 68 227 0.0 1.0 0.00 0.00 0.00 66 1010.5
20260901050417 68 18 0.0 1.0 0.00 0.00 0.00 66 1010.3
20260901045942 68 18 0.0 1.0 0.00 0.00 0.00 66 1010.2
20260901045440 69 234 0.0 1.0 0.00 0.00 0.00 66 1010.3
20260901044939 69 233 0.0 1.0 0.00 0.00 0.00 65 1010.3
20260901044431 69 234 0.0 1.0 0.00 0.00 0.00 64 1010.2
20260901043928 70 234 0.0 1.0 0.00 0.00 0.00 63 1010.2
20260901043455 70 86 0.0 1.0 0.00 0.00 0.00 63 1010.0
20260901042951 70 86 0.0 1.0 0.00 0.00 0.00 62 1009.9
20260901042433 71 85 0.0 3.0 0.00 0.00 0.00 61 1009.8
20260901041930 71 85 1.0 3.0 0.00 0.00 0.00 61 1009.7
20260901041426 71 224 0.0 3.0 0.00 0.00 0.00 59 1009.7
20260901040947 71 221 0.0 0.0 0.00 0.00 0.00 58 1009.6
20260901040424 71 221 0.0 0.0 0.00 0.00 0.00 58 1009.6
20260901035921 72 221 0.0 0.0 0.00 0.00 0.00 56 1009.4
20260901035436 72 221 0.0 0.0 0.00 0.00 0.00 57 1009.4
20260901035002 72 221 0.0 0.0 0.00 0.00 0.00 57 1009.3
20260901034419 73 221 0.0 0.0 0.00 0.00 0.00 56 1009.2
20260901033917 73 221 0.0 0.0 0.00 0.00 0.00 54 1009.1
20260901033435 74 221 0.0 0.0 0.00 0.00 0.00 53 1009.1
20260901032932 74 221 0.0 1.0 0.00 0.00 0.00 53 1009.0
20260901032431 74 221 0.0 1.0 0.00 0.00 0.00 52 1009.0
20260901031936 75 221 0.0 1.0 0.00 0.00 0.00 52 1008.9
20260901031433 75 221 0.0 1.0 0.00 0.00 0.00 52 1008.8
20260901030929 75 221 0.0 1.0 0.00 0.00 0.00 51 1008.7
20260901030446 76 222 0.0 0.0 0.00 0.00 0.00 51 1008.8